Weather History for K1A6 - March, 2013

Change the Weather History Date:

Saturday, March 23, 2013

  Actual Average (KLOZ) Record (KLOZ)
Temperature  
Mean Temperature 46 °F 49 °F  
Max Temperature 55 °F 61 °F 81 °F (2007)
Min Temperature 38 °F 38 °F 16 °F (1960)
Degree Days  
Heating Degree Days 18 16  
Month to date heating degree days 433  
Since 1 July heating degree days 3709  
Cooling Degree Days 0 0  
Month to date cooling degree days 0  
Year to date cooling degree days 0  
Moisture  
Dew Point 31 °F    
Average Humidity 60    
Maximum Humidity 80    
Minimum Humidity 47    
Precipitation  
Precipitation 0.00 in 0.13 in 1.45 in (1993)
Month to date precipitation 3.00  
Year to date precipitation 10.25  
Sea Level Pressure  
Sea Level Pressure 29.95 in    
Wind  
Wind Speed 0 mph (East)    
Max Wind Speed 5 mph    
Max Gust Speed -    
Visibility 10 miles    
Events      
T = Trace of Precipitation, MM = Missing Value Source: NWS Daily Summary

Daily Weather History Graph

Daily Weather History Graph

Search for Another Location

Airport or City:

Trip Planner

Search our weather history database for the weather conditions in past years. The results will help you decide how hot, cold, wet, or windy it might be!

Date:

Astronomy

Mar. 23, 2013 Rise Set
Actual Time 6:33 AM CDT 6:49 PM CDT
Civil Twilight 6:07 AM CDT 7:15 PM CDT
Nautical Twilight 5:37 AM CDT 7:45 PM CDT
Astronomical Twilight 5:07 AM CDT 8:16 PM CDT
Moon 3:20 PM CDT (3/23) 4:04 AM CDT (3/23)
Length of Visible Light 13h 07m
Length of Day
12h 15m
Waxing Gibbous, 85% of the Moon is Illuminated
Mar 23
Waxing Gibbous
Mar 27
Full
Apr 2
Last Quarter
Apr 10
New
Apr 18
First Quarter

Hourly Weather History & Observations

Time (CDT) Temp. Dew Point Humidity Pressure Visibility Wind Dir Wind Speed Gust Speed Precip Events Conditions
12:15 AM 38.5 °F 27.3 °F 64% 30.01 in 10.0 mi Calm Calm - N/A   Overcast
12:35 AM 38.7 °F 26.6 °F 62% 30.02 in 10.0 mi Calm Calm - N/A   Overcast
12:55 AM 38.7 °F 27.3 °F 64% 30.02 in 10.0 mi Calm Calm - N/A   Overcast
1:15 AM 39.2 °F 26.1 °F 59% 30.02 in 10.0 mi Calm Calm - N/A   Overcast
1:35 AM 38.7 °F 26.8 °F 62% 30.01 in 10.0 mi Calm Calm - N/A   Overcast
1:55 AM 38.8 °F 27.0 °F 62% 30.00 in 10.0 mi Calm Calm - N/A   Overcast
2:15 AM 38.5 °F 26.4 °F 62% 29.99 in 10.0 mi Calm Calm - N/A   Overcast
2:35 AM 38.7 °F 27.3 °F 64% 29.99 in 10.0 mi Calm Calm - N/A   Overcast
2:55 AM 38.5 °F 26.2 °F 61% 29.98 in 10.0 mi Calm Calm - N/A   Overcast
3:15 AM 38.3 °F 28.8 °F 69% 29.98 in 10.0 mi Calm Calm - N/A   Overcast
3:35 AM 38.3 °F 28.2 °F 67% 29.98 in 10.0 mi Calm Calm - N/A   Overcast
3:55 AM 38.3 °F 28.2 °F 67% 29.98 in 10.0 mi Calm Calm - N/A   Overcast
4:15 AM 38.3 °F 28.0 °F 67% 29.98 in 10.0 mi Calm Calm - N/A   Overcast
4:35 AM 38.3 °F 28.2 °F 67% 29.98 in 10.0 mi Calm Calm - N/A   Overcast
4:55 AM 38.3 °F 26.6 °F 63% 29.97 in 10.0 mi Calm Calm - N/A   Overcast
5:15 AM 38.3 °F 27.5 °F 65% 29.98 in 10.0 mi Calm Calm - N/A   Overcast
5:35 AM 38.3 °F 28.9 °F 69% 29.99 in 10.0 mi Calm Calm - N/A   Overcast
5:55 AM 38.3 °F 28.4 °F 68% 29.99 in 10.0 mi Calm Calm - N/A   Overcast
6:15 AM 38.5 °F 28.8 °F 68% 29.99 in 10.0 mi Calm Calm - N/A   Overcast
6:35 AM 38.5 °F 29.1 °F 69% 30.00 in 10.0 mi Calm Calm - N/A   Overcast
6:55 AM 38.5 °F 29.1 °F 69% 30.00 in 10.0 mi Calm Calm - N/A   Overcast
7:15 AM 38.5 °F 28.4 °F 67% 30.01 in 10.0 mi Calm Calm - N/A   Overcast
7:35 AM 38.7 °F 28.4 °F 67% 30.02 in 10.0 mi Calm Calm - N/A   Overcast
7:55 AM 38.8 °F 27.3 °F 63% 30.02 in 10.0 mi Calm Calm - N/A   Overcast
8:15 AM 39.2 °F 28.2 °F 65% 30.02 in 10.0 mi Calm Calm - N/A   Overcast
8:35 AM 40.5 °F 28.8 °F 63% 30.01 in 10.0 mi Calm Calm - N/A   Overcast
8:55 AM 40.6 °F 27.5 °F 59% 30.02 in 10.0 mi Calm Calm - N/A   Overcast
9:15 AM 41.0 °F 25.3 °F 54% 30.02 in 10.0 mi Calm Calm - N/A   Overcast
9:35 AM 41.4 °F 24.6 °F 51% 30.02 in 10.0 mi Calm Calm - N/A   Overcast
9:55 AM 41.9 °F 24.4 °F 50% 30.02 in 10.0 mi Calm Calm - N/A   Overcast
10:15 AM 42.4 °F 24.6 °F 49% 30.02 in 10.0 mi Calm Calm - N/A   Overcast
10:35 AM 42.8 °F 23.5 °F 47% 30.02 in 10.0 mi Calm Calm - N/A   Overcast
10:55 AM 43.7 °F 25.0 °F 48% 30.02 in 10.0 mi Calm Calm - N/A   Overcast
11:15 AM 43.0 °F 27.3 °F 54% 30.01 in 10.0 mi Calm Calm - N/A   Overcast
11:35 AM 43.7 °F 27.5 °F 53% 30.01 in 10.0 mi Calm Calm - N/A   Overcast
11:55 AM 44.1 °F 29.3 °F 56% 30.00 in 10.0 mi Calm Calm - N/A   Overcast
12:15 PM 44.8 °F 30.6 °F 57% 30.00 in 10.0 mi Calm Calm - N/A   Overcast
12:35 PM 45.7 °F 32.0 °F 59% 30.00 in 10.0 mi Calm Calm - N/A   Overcast
12:55 PM 46.4 °F 32.4 °F 58% 29.99 in 10.0 mi Calm Calm - N/A   Overcast
1:15 PM 47.3 °F 33.1 °F 58% 29.97 in 10.0 mi NNE 3.5 mph - N/A   Overcast
1:35 PM 47.8 °F 33.1 °F 57% 29.98 in 10.0 mi Calm Calm - N/A   Overcast
1:55 PM 49.6 °F 34.7 °F 56% 29.97 in 10.0 mi Calm Calm - N/A   Overcast
2:15 PM 50.2 °F 35.1 °F 56% 29.96 in 10.0 mi South 3.5 mph - N/A   Overcast
2:35 PM 51.4 °F 34.7 °F 53% 29.95 in 10.0 mi Calm Calm - N/A   Overcast
2:55 PM 51.6 °F 34.9 °F 53% 29.94 in 10.0 mi SSW 3.5 mph - N/A   Overcast
3:15 PM 53.1 °F 35.2 °F 51% 29.94 in 10.0 mi Calm Calm - N/A   Overcast
3:35 PM 52.9 °F 35.6 °F 52% 29.93 in 10.0 mi NE 3.5 mph - N/A   Overcast
3:55 PM 54.1 °F 35.8 °F 50% 29.92 in 10.0 mi ENE 3.5 mph - N/A   Mostly Cloudy
4:15 PM 55.0 °F 36.9 °F 50% 29.91 in 10.0 mi NNE 4.6 mph - N/A   Mostly Cloudy
4:35 PM 55.0 °F 36.1 °F 49% 29.92 in 10.0 mi NE 4.6 mph - N/A   Mostly Cloudy
4:55 PM 54.5 °F 36.1 °F 50% 29.92 in 10.0 mi North 3.5 mph - N/A   Mostly Cloudy
5:15 PM 54.0 °F 36.1 °F 51% 29.91 in 10.0 mi East 3.5 mph - N/A   Mostly Cloudy
5:35 PM 53.8 °F 36.5 °F 52% 29.90 in 10.0 mi East 3.5 mph - N/A   Scattered Clouds
5:55 PM 53.6 °F 35.4 °F 50% 29.89 in 10.0 mi East 3.5 mph - N/A   Scattered Clouds
6:15 PM 53.1 °F 34.9 °F 50% 29.90 in 10.0 mi SE 3.5 mph - N/A   Clear
6:35 PM 52.9 °F 34.7 °F 50% 29.90 in 10.0 mi Calm Calm - N/A   Clear
6:55 PM 52.0 °F 35.2 °F 53% 29.90 in 10.0 mi Calm Calm - N/A   Clear
7:15 PM 51.3 °F 35.8 °F 55% 29.89 in 10.0 mi Calm Calm - N/A   Clear
7:35 PM 49.8 °F 36.7 °F 61% 29.88 in 10.0 mi Calm Calm - N/A   Clear
7:55 PM 48.4 °F 37.6 °F 66% 29.90 in 10.0 mi Calm Calm - N/A   Clear
8:15 PM 47.3 °F 37.9 °F 70% 29.87 in 10.0 mi Calm Calm - N/A   Clear
8:35 PM 46.4 °F 37.8 °F 72% 29.86 in 10.0 mi Calm Calm - N/A   Clear
8:55 PM 45.7 °F 38.3 °F 75% 29.86 in 10.0 mi Calm Calm - N/A   Clear
9:15 PM 45.9 °F 37.6 °F 73% 29.84 in 10.0 mi Calm Calm - N/A   Clear
9:35 PM 46.0 °F 37.8 °F 73% 29.83 in 10.0 mi Calm Calm - N/A   Scattered Clouds
9:55 PM 44.8 °F 39.0 °F 80% 29.83 in 10.0 mi Calm Calm - N/A   Clear
10:15 PM 46.4 °F 37.8 °F 72% 29.82 in 10.0 mi Calm Calm - N/A   Mostly Cloudy
10:35 PM 47.7 °F 36.1 °F 64% 29.81 in 10.0 mi ESE 3.5 mph - N/A   Scattered Clouds
10:55 PM 48.2 °F 36.1 °F 63% 29.80 in 10.0 mi Calm Calm - N/A   Mostly Cloudy
11:15 PM 48.6 °F 35.8 °F 61% 29.79 in 10.0 mi Calm Calm - N/A   Overcast
11:35 PM 49.3 °F 35.1 °F 58% 29.78 in 10.0 mi Calm Calm - N/A   Overcast
11:55 PM 49.8 °F 34.5 °F 56% 29.80 in 10.0 mi West 3.5 mph - N/A   Overcast